Regional Weather Roundup
Issued by NWS Little Rock, AR

Home | Current Version | Previous Version | Graphics & Text | Print | Product List | Glossary On
Versions: 1 2 3 4 5 6 7 8 9 10 11 12 13 14 15 16 17 18 19 20 21 22 23 24 25 26 27 28 29 30 31 32 33 34 35 36 37 38 39 40 41 42 43 44 45 46 47 48 49 50
000
ASUS44 KLZK 200305
RWRLZK

WEATHER ROUNDUP FOR ARKANSAS
NATIONAL WEATHER SERVICE LITTLE ROCK AR
1000 PM CDT TUE AUG 19 2014

NOTE: "FAIR" INDICATES FEW OR NO CLOUDS BELOW 12,000 FEET WITH NO
SIGNIFICANT WEATHER AND/OR OBSTRUCTIONS TO VISIBILITY.

ARZ001-003-010-029-200400-
NORTHWEST ARKANSAS

CITY           SKY/WX    TMP DP  RH WIND       PRES   REMARKS
FAYETTEVILLE   CLEAR     79  73  82 S5        29.92R
FORT SMITH     CLEAR     85  74  69 S8        29.88R HX  92
HARRISON       CLEAR     79  71  76 S6        29.92R
BENTONVILLE    CLEAR     81  70  69 S5        29.92R
ROGERS         CLEAR     80  69  69 S6        29.92R
SILOAM SPGS    CLEAR     81  70  69 S6        29.92R
HIGHFILL       CLEAR     80  71  74 S5        29.91R
$$

ARZ004-005-016-200400-
NORTH CENTRAL ARKANSAS

CITY           SKY/WX    TMP DP  RH WIND       PRES   REMARKS
BATESVILLE     CLEAR     75  73  94 CALM      29.88R
FLIPPIN        CLEAR     82  70  65 SW6       29.89R HX  86
MTN HOME       CLEAR     82  71  69 SW7       29.88R HX  86
$$

ARZ040-041-200400-
WEST CENTRAL ARKANSAS

CITY           SKY/WX    TMP DP  RH WIND       PRES   REMARKS
MENA           CLEAR     81  73  78 CALM      29.94R HX  85
MOUNT IDA      PTCLDY    78  74  87 CALM      29.91R
$$

ARZ009-017-025-026-028-200400-
NORTHEAST ARKANSAS

CITY           SKY/WX    TMP DP  RH WIND       PRES   REMARKS
CORNING        FAIR      81  77  89 S7        29.85S HX  88
JONESBORO      PTCLDY    83  77  82 SW8       29.87R HX  92
NEWPORT        PTCLDY    83  78  84 S8        29.88R HX  93
WALNUT RIDGE   CLEAR     81  72  74 S5        29.85R
BLYTHEVILLE    PTCLDY    80  77  90 SW7       29.86R HX  87
$$

ARZ022-023-033-042-044-200400-
CENTRAL ARKANSAS

CITY           SKY/WX    TMP DP  RH WIND       PRES   REMARKS
LITTLE ROCK    MOCLDY    83  76  79 SW8       29.90R HX  91
N LITTLE ROCK  MOCLDY    84  78  81 SW7       29.90R HX  94
JACKSONVILLE   PTCLDY    86  76  74 SW8       29.90R HX  96
SEARCY           N/A     83  78  84 CALM        N/A  HX  93
HOT SPRINGS    MOCLDY    82  74  76 SW3       29.92R HX  88
RUSSELLVILLE   MOCLDY    78  72  81 CALM      29.90R
CLINTON        FAIR      79  73  83 CALM      29.90R
$$

ARZ036-200400-
EAST ARKANSAS

CITY           SKY/WX    TMP DP  RH WIND       PRES   REMARKS
WEST MEMPHIS   CLEAR     82  78  88 S6        29.88R HX  91
$$

ARZ050-053-066-070-073-200400-
SOUTHWEST ARKANSAS

CITY           SKY/WX    TMP DP  RH WIND       PRES   REMARKS
ARKADELPHIA    FAIR      80  80 100 CALM      29.92R HX  87
CAMDEN         PTCLDY    81  75  83 S3        29.91R HX  86
TEXARKANA      CLEAR     78  68  71 SW7       29.91S
EL DORADO      PTCLDY    80  74  81 SW9       29.92S HX  85
DE QUEEN       CLEAR     78  75  90 CALM      29.90R
$$

ARZ056-057-069-200400-
SOUTHEAST ARKANSAS

CITY           SKY/WX    TMP DP  RH WIND       PRES   REMARKS
PINE BLUFF     CLEAR     81  77  88 S6        29.91R HX  88
STUTTGART      CLEAR     81  75  83 SW7       29.91R HX  86
MONTICELLO     CLEAR     81  71  71 SW3       29.92R HX  85

$$





USA.gov is the U.S. government's official web portal to all federal, state and local government web resources and services.